Regional Weather Roundup
Issued by NWS Albany, NY

Home | Current Version | Previous Version | Text Only | Print | Product List | Glossary On
Versions: 1 2 3 4 5 6 7 8 9 10 11 12 13 14 15 16 17 18 19 20 21 22 23 24 25 26 27 28 29 30 31 32 33 34 35 36 37 38 39 40 41 42 43 44 45 46 47 48 49 50
000
ASUS41 KALY 210510
RWRALY

NEW YORK STATE HOURLY WEATHER ROUNDUP
NATIONAL WEATHER SERVICE ALBANY NY
1200 AM EST SUN DEC 21 2014

NOTE: "FAIR" INDICATES FEW OR NO CLOUDS BELOW 12,000 FEET WITH NO
SIGNIFICANT WEATHER AND/OR NO OBSTRUCTIONS TO VISIBILITY.

NYZ032-033-038>043-046>054-057>066-NYZ062>081-210600-
EAST


CITY           SKY/WX    TMP DP  RH WIND       PRES   REMARKS
ALBANY         CLOUDY    28  19  69 N6        30.30F WCI  22
GLENS FALLS    CLOUDY    23  18  81 CALM      30.31S
POUGHKEEPSIE   CLOUDY    30  21  69 CALM      30.29R
MONTGOMERY     CLOUDY    28  23  81 CALM      30.27R
WHITE PLAINS   CLOUDY    30  24  78 NW5       30.25F WCI  25
ISLIP          CLOUDY    33  25  72 CALM      30.25F
NEW YORK CITY  CLOUDY    32  23  69 N5        30.29F WCI  27
CENTRAL PARK   CLOUDY    32  21  64 VRB3      30.30F
$$

NYZ005>009-017-018-044>046-055-056-210600-
CENTRAL


CITY           SKY/WX    TMP DP  RH WIND       PRES   REMARKS
FULTON         CLOUDY    25  19  78 CALM      30.29S
SYRACUSE       CLOUDY    24  22  91 CALM      30.29S
ROME           CLOUDY    25  20  81 E6        30.31S WCI  18
ELMIRA         CLOUDY    28  20  71 N3        30.25F
BINGHAMTON     CLOUDY    25  19  78 CALM      30.21S
MONTICELLO     CLOUDY    25  21  86 CALM      30.22S
$$

NYZ026>034-041>043-210600-
NORTH


CITY           SKY/WX    TMP DP  RH WIND       PRES   REMARKS
WATERTOWN      MOCLDY    19  13  77 CALM      30.30S
FORT DRUM      NOT AVBL
MASSENA        CLOUDY    14  11  87 E7        30.35S FOG     WCI   4
SARANAC LAKE   CLOUDY     7 N/A N/A CALM      30.20F
PLATTSBURGH    CLOUDY    16  12  84 NE3       30.34S
$$

NYZ001>004-010>016-019>021-210600-
WEST


CITY           SKY/WX    TMP DP  RH WIND       PRES   REMARKS
NIAGARA FALLS  CLOUDY    27  23  85 CALM      30.26S
BUFFALO        MOCLDY    27  22  81 S5        30.26S WCI  22
DUNKIRK        CLOUDY    29  23  78 S7        30.27S WCI  22
JAMESTOWN      CLOUDY    25  19  80 S3        30.21S
WELLSVILLE     CLOUDY    24  19  81 CALM      30.19F
ROCHESTER      CLOUDY    30  23  75 CALM      30.27F
PENN YAN       CLOUDY    28  20  71 CALM      30.26S
$$

             KEY
       WCI = WIND CHILL INDEX
       VSB = VISIBILITY
       HX  = HEAT INDEX
$$



USA.gov is the U.S. government's official web portal to all federal, state and local government web resources and services.